Flag for Switzerland Weather past 2 weeks in Affoltern am Albis, Zurich, Switzerland

Now
45 °F

Quite cool.


Feels Like: 45 °F
Forecast: 38 / 54 °F
Wind: 1 mph from South

Location: Zurich Town / Ville.

Current Time: Oct 25, 2014 at 6:41:32 AM

Latest Report: Oct 25, 2014 at 6:00 AM


Visibility: N/A

Pressure: 30.15 "Hg

Humidity: 91%

Dew point: 42 °F

Location of Affoltern am AlbisLocation

Historic Weather in Affoltern am Albis — Graph

°F

Affoltern am Albis temperature yesterday

Maximum temperature yesterday: 51 °F (at 4:00 PM)
Minimum temperature yesterday: 37 °F (at 5:00 AM)
Average temperature yesterday: 43 °F

Past Weeks' High & Low Weather Summary

 TemperatureHumidityPressure
High70 °F (Oct 19, 4:00 PM)100% (Oct 18, 6:00 AM)30.34 "Hg (Oct 18, 6:00 AM)
Low37 °F (Oct 24, 5:00 AM)53% (Oct 21, 4:00 PM)29.74 "Hg (Oct 21, 7:00 PM)
Average55 °F85%30.02 "Hg
* Reported Oct 10 5:00 AM — Oct 25 5:00 AM, Affoltern am Albis, Weather by CustomWeather, © 2014

Note: Actual official high and low records may vary slightly from our data, if they occured in-between our weather recording intervals... More about our weather records

Advertising

Affoltern am Albis weather history for previous 24 hours

 ConditionsComfort  
Time TempWeatherWind HumidityBarometerVisibility
5:00 AM
Oct 25
45 °FQuite cool.1 mph88%30.14 "HgN/A
4:00 AM44 °FQuite cool.1 mph90%30.14 "HgN/A
3:00 AM45 °FQuite cool.2 mph90%30.14 "HgN/A
2:00 AM45 °FQuite cool.No wind90%30.16 "HgN/A
1:00 AM44 °FQuite cool.2 mph91%30.16 "HgN/A
12:00 AM44 °FQuite cool.2 mph89%30.16 "HgN/A
11:00 PM
Oct 24
44 °FQuite cool.1 mph89%30.17 "HgN/A
10:00 PM43 °FQuite cool.No wind89%30.17 "HgN/A
9:00 PM43 °FQuite cool.1 mph88%30.16 "HgN/A
8:00 PM44 °FQuite cool.6 mph87%30.16 "HgN/A
7:00 PM45 °FQuite cool.5 mph84%30.15 "HgN/A
6:00 PM48 °FCool.3 mph74%30.14 "HgN/A
5:00 PM51 °FCool.3 mph66%30.13 "HgN/A
4:00 PM51 °FCool.5 mph63%30.14 "HgN/A
3:00 PM49 °FCool.5 mph66%30.16 "HgN/A
2:00 PM49 °FScattered clouds.5 mph68%30.17 "HgN/A
1:00 PM47 °FCool.6 mph75%30.19 "HgN/A
12:00 PM45 °FQuite cool.5 mph79%30.22 "HgN/A
11:00 AM43 °FQuite cool.6 mph83%30.23 "HgN/A
10:00 AM42 °FQuite cool.2 mph90%30.24 "HgN/A
9:00 AM41 °FQuite cool.2 mph90%30.24 "HgN/A
8:00 AM40 °FPartly sunny.2 mph93%30.23 "HgN/A
7:00 AM37 °FChilly.3 mph96%30.24 "HgN/A
6:00 AM38 °FChilly.1 mph95%30.25 "HgN/A
Weather by CustomWeather, © 2014

See weather overviewHow to use our weather pages